Starlink 3252

operational
NORAD ID: 49733 Int'l Des: 2021-115 Owner: SPXS Country: US Constellation: starlink
LEOCIRCULAR

Starlink 3252について

説明を読み込み中...

リアルタイム位置

3D地球を読み込み中...

次回通過

高度履歴

Altitude vs Time

uPlot chart will show altitude changes over time

軌道要素

1 49733U 21115K 26035.06473501 .00000153 00000-0 27709-4 0 9996
2 49733 53.2176 310.0698 0001308 86.1783 273.9358 15.08837135230311
Epoch: Feb 4, 2026 • Age: 22 hours

現在のステータス

高度 540.2 km
速度 7.60 km/s
衛星直下点 24.56°N, 168.63°W
打ち上げ日 Dec 2, 2021
運用期間 4.1 years
タイプ internet

技術仕様

分類 Payload
質量 290.00 kg
乾燥質量 270.00 kg
総質量 290.00 kg
長さ 0.20 m
直径 2.80 m
スパン 9.00 m
形状 Box + pan
製造者 SPXS
バスタイプ Starlink
フェーズステータス In Orbit
所有者/国 SPXS/US

大規模コンステレーション

Loading constellations...